Location: Beaurevoir
(49.9971°N, 3.3085°E)
Time: 14:38:22
(UTC+00:00)

Timation 1 Rocket - Pass Details

Date: 23 May 2024
Orbit: 898 x 907 km, 70.0° (Epoch: 18 June)

Event Time Altitude Azimuth Distance (km) Brightness Sun altitude
Exits shadow 02:32:21 13° 219° (SW) 2,367 5.8 -10.1°
Maximum altitude 02:37:44 73° 303° (WNW) 943 4.4 -9.5°
Drops below altitude 10° 02:43:43 10° 28° (NNE) 2,585 8.2 -8.9°
Sets 02:46:14 0° 31° (NNE) 3,529 9.4 -8.6°
